Location: Asheville, NC
(35.6000°N, 82.5500°W)
Time: 21:01:54
(UTC-05:00)

Vanguard 2 Rocket - Pass Details

Date: 16 December 2017
Orbit: 556 x 3326 km, 32.9° (Epoch: 20 January)

Event Time Altitude Azimuth Distance (km) Brightness Sun altitude
Rises 21:06:38 0° 266° (W) 5,187 11.5 -45.4°
Reaches altitude 10° 21:09:28 10° 266° (W) 4,491 11.0 -45.9°
Enters shadow 21:21:59 78° 227° (SW) 2,835 9.1 -48.5°
